Weather in Bellagio

Italy     45°59′05″N   9°15′33″E
temp.,
°C
wind,
m/s
gust,
m/s
humid.,
%
clouds,
%
prec.,
mm/h
press.,
hPa
HPBL,
m
8 march, mon
mon801:000nne12840 0.0 102022
04:00−1nne12820 0.0 101922
07:00−1nne11780 0.0 101921
10:00+6wsw01450 0.0 1018495
13:00+8ssw22470 0.0 10171049
16:00+7ssw22577 0.0 1015711
19:00+2ssw11774 0.0 101722
22:000ne01890 0.0 101922
9 march, tue
tue901:000n11861 0.0 101921
04:00−1nne127727 0.0 101824
07:00−1nne117439 0.0 101921
10:00+5sw116093 0.0 1018603
13:00+6sw216497 0.0 1017818
16:00+6ssw2264100 0.1 1015830
19:00+1nnw118271 0.1 101723
22:00−1nne23670 0.0 102047
10 march, wed
wed1001:00−1nne22650 0.0 102147
04:00−1nne22590 0.0 102136
07:00−1nne22530 0.0 102229
10:00+6s11310 0.0 1021523
13:00+9ssw21310 0.0 10201115
16:00+8sw22400 0.0 1018858
19:00+2ssw11611 0.0 102122
22:00+1ne116380 0.0 102222
11 march, thu
thu1101:00+1ne126784 0.0 102222
04:000nne1269100 0.0 102121
07:000nne1268100 0.0 102122
10:00+6ne0049100 0.0 1020368
13:00+8ssw2252100 0.0 10181033
16:00+7ssw2261100 0.0 1016913
19:00+3ssw1185100 0.0 101722
22:00+4ne1178100 0.0 101866
12 march, fri
fri1201:00+4nne1275100 0.0 101783
04:00+2nne228497 0.0 101674
07:00+1nne228877 0.0 101733
10:00+8nne125681 0.0 1016485
13:00+11ssw114987 0.0 10141296
16:00+9sw126451 1.0 1012728
19:00+6nnw138676 3.6 1013507
22:00+3nne238697 1.0 1014103